Weather History for Barcelona / Aeropuerto, Spain

Change the Weather History Date:

Sunday, August 11, 2013

  Actual Average Record
Temperature  
Mean Temperature 76 °F -  
Max Temperature 84 °F 78 °F - ()
Min Temperature 69 °F 66 °F - ()
Cooling Degree Days 12    
Growing Degree Days 26 (Base 50)    
Moisture  
Dew Point 66 °F    
Average Humidity 66    
Maximum Humidity 74    
Minimum Humidity 60    
Precipitation  
Precipitation 0.00 in 0.09 in - ()
Sea Level Pressure  
Sea Level Pressure 30.06 in    
Wind  
Wind Speed 8 mph ()    
Max Wind Speed 20 mph    
Max Gust Speed -    
Visibility 7.7 miles    
Events      
T = Trace of Precipitation, MM = Missing Value Source: Averaged Metar Reports

Daily Weather History Graph

Daily Weather History Graph

Search for Another Location

Airport:

Trip Planner

Search our weather history database for the weather conditions in past years. The results will help you decide how hot, cold, wet, or windy it might be!

Date:

Astronomy

Aug. 11, 2013 Rise Set
Actual Time 6:56 AM CEST 8:56 PM CEST
Civil Twilight 6:26 AM CEST 9:26 PM CEST
Nautical Twilight 5:50 AM CEST 10:02 PM CEST
Astronomical Twilight 5:10 AM CEST 10:42 PM CEST
Moon 11:32 AM CEST (8/11) 10:58 PM CEST (8/11)
Length of Visible Light 14h 59m
Length of Day
13h 59m
Waxing Crescent, 19% of the Moon is Illuminated
Aug 11
Waxing Crescent
Aug 14
First Quarter
Aug 21
Full
Aug 28
Last Quarter
Sep 5
New

Hourly Weather History & Observations

Time (CEST) Temp. Heat Index Dew Point Humidity Pressure Visibility Wind Dir Wind Speed Gust Speed Precip Events Conditions
12:00 AM 77.0 °F - 62.6 °F 61% 30.09 in - WSW 4.6 mph - N/A   Clear
12:30 AM 77.0 °F - 62.6 °F 61% 30.09 in - West 3.5 mph - N/A   Clear
1:00 AM 75.2 °F - 62.6 °F 65% 30.09 in - WNW 3.5 mph - N/A   Clear
1:30 AM 75.2 °F - 62.6 °F 65% 30.09 in - NW 4.6 mph - N/A   Clear
2:00 AM 74 °F - 63 °F 60% 30.11 in 19 mi NNW 4.6 mph - -  
2:00 AM 75.2 °F - 60.8 °F 61% 30.09 in - NW 4.6 mph - N/A   Clear
2:30 AM 73.4 °F - 60.8 °F 65% 30.09 in - WNW 4.6 mph - N/A   Clear
3:00 AM 73.4 °F - 60.8 °F 65% 30.09 in - NW 4.6 mph - N/A   Clear
3:30 AM 73.4 °F - 60.8 °F 65% 30.09 in - NW 6.9 mph - N/A   Clear
4:00 AM 73.4 °F - 60.8 °F 65% 30.09 in - NW 5.8 mph - N/A   Clear
4:30 AM 73.4 °F - 60.8 °F 65% 30.09 in - NW 6.9 mph - N/A   Clear
5:00 AM 71.6 °F - 60.8 °F 69% 30.06 in - NW 6.9 mph - N/A   Clear
5:30 AM 71.6 °F - 60.8 °F 69% 30.06 in - NNW 8.1 mph - N/A   Clear
6:00 AM 71.6 °F - 60.8 °F 69% 30.06 in - NW 8.1 mph - N/A   Clear
6:30 AM 71.6 °F - 60.8 °F 69% 30.06 in - NW 6.9 mph - N/A   Clear
7:00 AM 69.8 °F - 60.8 °F 73% 30.06 in - NNW 8.1 mph - N/A   Clear
8:00 AM 71 °F - 62 °F 67% 30.10 in 19 mi North 10.4 mph - -   Scattered Clouds
8:00 AM 71.6 °F - 60.8 °F 69% 30.09 in - Variable 9.2 mph - N/A   Clear
8:30 AM 71.6 °F - 60.8 °F 69% 30.09 in 6.2 mi NNW 6.9 mph - N/A   Partly Cloudy
9:00 AM 73.4 °F - 62.6 °F 69% 30.09 in 6.2 mi NNW 5.8 mph - N/A   Partly Cloudy
9:30 AM 77.0 °F - 62.6 °F 61% 30.09 in 6.2 mi NW 3.5 mph - N/A   Partly Cloudy
10:00 AM 78.8 °F - 64.4 °F 61% 30.09 in 6.2 mi NW 1.2 mph - N/A   Partly Cloudy
10:30 AM 80.6 °F 82.7 °F 66.2 °F 61% 30.09 in 6.2 mi East 4.6 mph - N/A   Partly Cloudy
11:00 AM 80.6 °F 83.2 °F 68.0 °F 65% 30.09 in 6.2 mi SE 5.8 mph - N/A   Partly Cloudy
11:30 AM 80.6 °F 83.9 °F 69.8 °F 70% 30.09 in 6.2 mi SE 6.9 mph - N/A   Partly Cloudy
12:00 PM 80.6 °F 83.9 °F 69.8 °F 70% 30.09 in 6.2 mi South 8.1 mph - N/A   Partly Cloudy
12:30 PM 80.6 °F 83.9 °F 69.8 °F 70% 30.09 in 6.2 mi South 8.1 mph - N/A   Partly Cloudy
1:00 PM 80.6 °F 83.9 °F 69.8 °F 70% 30.09 in 6.2 mi South 9.2 mph - N/A   Partly Cloudy
1:30 PM 80.6 °F 83.9 °F 69.8 °F 70% 30.06 in 6.2 mi SSW 11.5 mph - N/A   Partly Cloudy
2:00 PM 82 °F - 72 °F 65% 30.08 in 19 mi SSW 15.0 mph - -   Scattered Clouds
2:00 PM 80.6 °F 83.9 °F 69.8 °F 70% 30.06 in 6.2 mi SSW 13.8 mph - N/A   Partly Cloudy
2:30 PM 82.4 °F 86.3 °F 69.8 °F 66% 30.06 in 6.2 mi SSW 15.0 mph - N/A   Partly Cloudy
3:00 PM 82.4 °F 85.4 °F 68.0 °F 62% 30.06 in 6.2 mi SW 17.3 mph - N/A   Partly Cloudy
3:30 PM 82.4 °F 86.3 °F 69.8 °F 66% 30.06 in 6.2 mi SW 17.3 mph - N/A   Partly Cloudy
4:00 PM 82.4 °F 85.4 °F 68.0 °F 62% 30.04 in 6.2 mi SW 17.3 mph - N/A   Partly Cloudy
4:30 PM 82.4 °F 86.3 °F 69.8 °F 66% 30.04 in 6.2 mi SW 18.4 mph - N/A   Partly Cloudy
5:00 PM 82.4 °F 86.3 °F 69.8 °F 66% 30.04 in 6.2 mi SW 18.4 mph - N/A   Partly Cloudy
5:30 PM 82.4 °F 86.3 °F 69.8 °F 66% 30.04 in 6.2 mi SW 19.6 mph - N/A   Partly Cloudy
6:00 PM 82.4 °F 86.3 °F 69.8 °F 66% 30.04 in 6.2 mi SW 18.4 mph - N/A   Partly Cloudy
6:30 PM 82.4 °F 85.4 °F 68.0 °F 62% 30.04 in 6.2 mi SW 17.3 mph - N/A   Partly Cloudy
7:00 PM 82.4 °F 86.3 °F 69.8 °F 66% 30.01 in 6.2 mi SW 16.1 mph - N/A   Partly Cloudy
7:30 PM 80.6 °F 83.2 °F 68.0 °F 65% 30.01 in 6.2 mi SW 16.1 mph - N/A   Partly Cloudy
8:00 PM 80 °F - 72 °F 69% 30.02 in 19 mi SW 15.0 mph - -   Scattered Clouds
8:00 PM 80.6 °F 83.9 °F 69.8 °F 70% 30.01 in 6.2 mi SW 16.1 mph - N/A   Partly Cloudy
8:30 PM 78.8 °F - 69.8 °F 74% 30.01 in 6.2 mi SW 16.1 mph - N/A   Partly Cloudy
9:00 PM 78.8 °F - 69.8 °F 74% 30.01 in 6.2 mi SW 15.0 mph - N/A   Partly Cloudy
9:30 PM 78.8 °F - 69.8 °F 74% 30.04 in 6.2 mi SW 12.7 mph - N/A   Partly Cloudy
10:00 PM 78.8 °F - 68.0 °F 69% 30.04 in 6.2 mi SW 10.4 mph - N/A   Partly Cloudy
10:30 PM 78.8 °F - 64.4 °F 61% 30.04 in 6.2 mi WSW 8.1 mph - N/A   Partly Cloudy
11:00 PM 78.8 °F - 64.4 °F 61% 30.04 in 6.2 mi West 8.1 mph - N/A   Partly Cloudy
11:30 PM 77.0 °F - 62.6 °F 61% 30.04 in 6.2 mi WSW 6.9 mph - N/A   Partly Cloudy